Time,TemperatureF,DewpointF,PressureIn,WindDirection,WindDirectionDegrees,WindSpeedMPH,WindSpeedGustMPH,Humidity,HourlyPrecipIn,Conditions,Clouds,dailyrainin,SoftwareType,DateUTC
2013-04-21 00:01:00,45.0,28.0,30.30,NW,315,4.0,8.0,50,0.00,,,0.00,Rainwise IP-100,2013-04-21 04:01:00,
2013-04-21 00:06:00,45.0,28.0,30.31,West,270,5.0,7.0,50,0.00,,,0.00,Rainwise IP-100,2013-04-21 04:06:00,
2013-04-21 00:11:00,44.0,28.0,30.31,West,270,5.0,7.0,51,0.00,,,0.00,Rainwise IP-100,2013-04-21 04:11:00,
2013-04-21 00:16:00,44.0,28.0,30.31,NW,315,9.0,9.0,51,0.00,,,0.00,Rainwise IP-100,2013-04-21 04:16:00,
2013-04-21 00:21:00,45.0,26.0,30.31,WNW,292,8.0,11.0,48,0.00,,,0.00,Rainwise IP-100,2013-04-21 04:21:00,
2013-04-21 00:26:00,45.0,26.0,30.31,NNW,337,6.0,14.0,47,0.00,,,0.00,Rainwise IP-100,2013-04-21 04:26:00,
2013-04-21 00:31:00,44.0,24.0,30.31,East,90,3.0,17.0,45,0.00,,,0.00,Rainwise IP-100,2013-04-21 04:31:00,
2013-04-21 00:36:00,44.0,24.0,30.33,North,360,6.0,14.0,45,0.00,,,0.00,Rainwise IP-100,2013-04-21 04:36:00,
2013-04-21 00:41:00,44.0,23.0,30.33,NNW,337,8.0,17.0,43,0.00,,,0.00,Rainwise IP-100,2013-04-21 04:41:00,
2013-04-21 00:46:00,44.0,23.0,30.33,NW,315,5.0,15.0,43,0.00,,,0.00,Rainwise IP-100,2013-04-21 04:46:00,
2013-04-21 00:51:00,43.0,21.0,30.33,NW,315,7.0,15.0,41,0.00,,,0.00,Rainwise IP-100,2013-04-21 04:51:00,
2013-04-21 00:56:00,43.0,21.0,30.33,North,360,5.0,15.0,41,0.00,,,0.00,Rainwise IP-100,2013-04-21 04:56:00,
2013-04-21 01:01:00,43.0,23.0,30.33,NNW,337,7.0,13.0,42,0.00,,,0.00,Rainwise IP-100,2013-04-21 05:01:00,
2013-04-21 01:06:00,43.0,21.0,30.34,NNW,337,9.0,17.0,41,0.00,,,0.00,Rainwise IP-100,2013-04-21 05:06:00,
2013-04-21 01:11:00,43.0,23.0,30.34,NNE,22,7.0,13.0,42,0.00,,,0.00,Rainwise IP-100,2013-04-21 05:11:00,
2013-04-21 01:16:00,43.0,23.0,30.35,West,270,3.0,13.0,42,0.00,,,0.00,Rainwise IP-100,2013-04-21 05:16:00,
2013-04-21 01:21:00,42.0,21.0,30.35,NW,315,2.0,10.0,42,0.00,,,0.00,Rainwise IP-100,2013-04-21 05:21:00,
2013-04-21 01:26:00,42.0,23.0,30.36,NW,315,6.0,10.0,43,0.00,,,0.00,Rainwise IP-100,2013-04-21 05:26:00,
2013-04-21 01:31:00,42.0,23.0,30.36,NNW,337,2.0,10.0,45,0.00,,,0.00,Rainwise IP-100,2013-04-21 05:31:00,
2013-04-21 01:36:00,42.0,23.0,30.36,NW,315,6.0,12.0,44,0.00,,,0.00,Rainwise IP-100,2013-04-21 05:36:00,
2013-04-21 01:39:00,42.0,23.0,30.36,North,360,7.0,12.0,46,0.00,,,0.00,Rainwise IP-100,2013-04-21 05:39:00,
2013-04-21 01:44:00,41.0,23.0,30.37,WNW,292,1.0,9.0,46,0.00,,,0.00,Rainwise IP-100,2013-04-21 05:44:00,
2013-04-21 01:49:00,41.0,23.0,30.37,North,360,3.0,14.0,46,0.00,,,0.00,Rainwise IP-100,2013-04-21 05:49:00,
2013-04-21 01:54:00,41.0,23.0,30.38,NNW,337,6.0,17.0,45,0.00,,,0.00,Rainwise IP-100,2013-04-21 05:54:00,
2013-04-21 01:59:00,41.0,21.0,30.38,North,360,7.0,14.0,44,0.00,,,0.00,Rainwise IP-100,2013-04-21 05:59:00,
2013-04-21 02:04:00,41.0,23.0,30.39,NNW,337,1.0,10.0,45,0.00,,,0.00,Rainwise IP-100,2013-04-21 06:04:00,
2013-04-21 02:09:00,40.0,21.0,30.39,North,360,6.0,15.0,45,0.00,,,0.00,Rainwise IP-100,2013-04-21 06:09:00,
2013-04-21 02:14:00,40.0,23.0,30.39,NNE,22,8.0,11.0,46,0.00,,,0.00,Rainwise IP-100,2013-04-21 06:14:00,
2013-04-21 02:19:00,40.0,23.0,30.39,NW,315,1.0,11.0,46,0.00,,,0.00,Rainwise IP-100,2013-04-21 06:19:00,
2013-04-21 02:24:00,40.0,23.0,30.39,NW,315,9.0,12.0,46,0.00,,,0.00,Rainwise IP-100,2013-04-21 06:24:00,
2013-04-21 02:29:00,40.0,23.0,30.39,NNW,337,6.0,16.0,48,0.00,,,0.00,Rainwise IP-100,2013-04-21 06:29:00,
2013-04-21 02:34:00,40.0,23.0,30.40,NNW,337,7.0,12.0,47,0.00,,,0.00,Rainwise IP-100,2013-04-21 06:34:00,
2013-04-21 02:39:00,40.0,23.0,30.40,NW,315,7.0,12.0,46,0.00,,,0.00,Rainwise IP-100,2013-04-21 06:39:00,
2013-04-21 02:44:00,40.0,23.0,30.41,North,360,6.0,12.0,46,0.00,,,0.00,Rainwise IP-100,2013-04-21 06:44:00,
2013-04-21 02:49:00,39.0,21.0,30.41,NW,315,3.0,10.0,47,0.00,,,0.00,Rainwise IP-100,2013-04-21 06:49:00,
2013-04-21 02:54:00,39.0,23.0,30.41,NNE,22,3.0,10.0,48,0.00,,,0.00,Rainwise IP-100,2013-04-21 06:54:00,
2013-04-21 02:59:00,39.0,21.0,30.41,North,360,9.0,12.0,45,0.00,,,0.00,Rainwise IP-100,2013-04-21 06:59:00,
2013-04-21 03:04:00,39.0,21.0,30.42,North,360,4.0,14.0,44,0.00,,,0.00,Rainwise IP-100,2013-04-21 07:04:00,
2013-04-21 03:09:00,39.0,21.0,30.42,NW,315,2.0,18.0,46,0.00,,,0.00,Rainwise IP-100,2013-04-21 07:09:00,
2013-04-21 03:14:00,38.0,21.0,30.42,North,360,4.0,9.0,46,0.00,,,0.00,Rainwise IP-100,2013-04-21 07:14:00,
2013-04-21 03:19:00,38.0,21.0,30.42,North,360,6.0,9.0,46,0.00,,,0.00,Rainwise IP-100,2013-04-21 07:19:00,
2013-04-21 03:24:00,38.0,18.0,30.42,NW,315,6.0,12.0,44,0.00,,,0.00,Rainwise IP-100,2013-04-21 07:24:00,
2013-04-21 03:29:00,38.0,18.0,30.42,North,360,3.0,13.0,44,0.00,,,0.00,Rainwise IP-100,2013-04-21 07:29:00,
2013-04-21 03:34:00,38.0,18.0,30.42,NW,315,4.0,13.0,44,0.00,,,0.00,Rainwise IP-100,2013-04-21 07:34:00,
2013-04-21 03:39:00,38.0,21.0,30.42,NNW,337,6.0,12.0,46,0.00,,,0.00,Rainwise IP-100,2013-04-21 07:39:00,
2013-04-21 03:44:00,38.0,18.0,30.43,NW,315,10.0,12.0,44,0.00,,,0.00,Rainwise IP-100,2013-04-21 07:44:00,
2013-04-21 03:49:00,38.0,21.0,30.43,North,360,5.0,12.0,46,0.00,,,0.00,Rainwise IP-100,2013-04-21 07:49:00,
2013-04-21 03:54:00,38.0,21.0,30.43,SSE,157,2.0,9.0,46,0.00,,,0.00,Rainwise IP-100,2013-04-21 07:54:00,
2013-04-21 03:59:00,37.0,18.0,30.43,NW,315,2.0,10.0,46,0.00,,,0.00,Rainwise IP-100,2013-04-21 07:59:00,
2013-04-21 04:04:00,37.0,18.0,30.44,North,360,7.0,11.0,46,0.00,,,0.00,Rainwise IP-100,2013-04-21 08:04:00,
2013-04-21 04:09:00,37.0,18.0,30.44,North,360,4.0,9.0,46,0.00,,,0.00,Rainwise IP-100,2013-04-21 08:09:00,
2013-04-21 04:14:00,37.0,18.0,30.45,North,360,4.0,8.0,47,0.00,,,0.00,Rainwise IP-100,2013-04-21 08:14:00,
2013-04-21 04:19:00,36.0,18.0,30.45,North,360,2.0,7.0,48,0.00,,,0.00,Rainwise IP-100,2013-04-21 08:19:00,
2013-04-21 04:24:00,37.0,18.0,30.45,NNW,337,6.0,11.0,47,0.00,,,0.00,Rainwise IP-100,2013-04-21 08:24:00,
2013-04-21 04:29:00,37.0,21.0,30.45,North,360,5.0,11.0,49,0.00,,,0.00,Rainwise IP-100,2013-04-21 08:29:00,
2013-04-21 04:34:00,36.0,18.0,30.45,North,360,4.0,10.0,49,0.00,,,0.00,Rainwise IP-100,2013-04-21 08:34:00,
2013-04-21 04:39:00,36.0,21.0,30.45,North,360,3.0,10.0,50,0.00,,,0.00,Rainwise IP-100,2013-04-21 08:39:00,
2013-04-21 04:44:00,36.0,21.0,30.46,North,360,3.0,6.0,51,0.00,,,0.00,Rainwise IP-100,2013-04-21 08:44:00,
2013-04-21 04:49:00,35.0,21.0,30.46,NNW,337,4.0,6.0,53,0.00,,,0.00,Rainwise IP-100,2013-04-21 08:49:00,
2013-04-21 04:54:00,35.0,21.0,30.47,NNW,337,3.0,6.0,54,0.00,,,0.00,Rainwise IP-100,2013-04-21 08:54:00,
2013-04-21 04:59:00,35.0,21.0,30.47,North,360,3.0,9.0,54,0.00,,,0.00,Rainwise IP-100,2013-04-21 08:59:00,
2013-04-21 05:05:00,35.0,21.0,30.47,NW,315,0.0,6.0,54,0.00,,,0.00,Rainwise IP-100,2013-04-21 09:05:00,
2013-04-21 05:10:00,35.0,21.0,30.47,NNW,337,2.0,7.0,54,0.00,,,0.00,Rainwise IP-100,2013-04-21 09:10:00,
2013-04-21 05:15:00,35.0,21.0,30.48,NNE,22,4.0,7.0,55,0.00,,,0.00,Rainwise IP-100,2013-04-21 09:15:00,
2013-04-21 05:20:00,35.0,21.0,30.48,NNE,22,0.0,6.0,57,0.00,,,0.00,Rainwise IP-100,2013-04-21 09:20:00,
2013-04-21 05:25:00,34.0,21.0,30.49,North,360,4.0,4.0,56,0.00,,,0.00,Rainwise IP-100,2013-04-21 09:25:00,
2013-04-21 05:30:00,34.0,23.0,30.49,North,360,3.0,5.0,58,0.00,,,0.00,Rainwise IP-100,2013-04-21 09:30:00,
2013-04-21 05:35:00,34.0,23.0,30.50,NNW,337,5.0,7.0,58,0.00,,,0.00,Rainwise IP-100,2013-04-21 09:35:00,
2013-04-21 05:40:00,34.0,23.0,30.50,North,360,2.0,6.0,58,0.00,,,0.00,Rainwise IP-100,2013-04-21 09:40:00,
2013-04-21 05:45:00,34.0,23.0,30.50,North,360,1.0,6.0,58,0.00,,,0.00,Rainwise IP-100,2013-04-21 09:45:00,
2013-04-21 05:50:00,33.0,23.0,30.50,North,360,2.0,2.0,61,0.00,,,0.00,Rainwise IP-100,2013-04-21 09:50:00,
2013-04-21 05:55:00,33.0,23.0,30.51,North,360,3.0,6.0,61,0.00,,,0.00,Rainwise IP-100,2013-04-21 09:55:00,
2013-04-21 06:00:00,33.0,23.0,30.51,North,360,2.0,5.0,62,0.00,,,0.00,Rainwise IP-100,2013-04-21 10:00:00,
2013-04-21 06:05:00,33.0,23.0,30.51,North,360,2.0,6.0,61,0.00,,,0.00,Rainwise IP-100,2013-04-21 10:05:00,
2013-04-21 06:10:00,33.0,23.0,30.51,North,360,4.0,5.0,61,0.00,,,0.00,Rainwise IP-100,2013-04-21 10:10:00,
2013-04-21 06:15:00,34.0,23.0,30.52,NNW,337,5.0,7.0,60,0.00,,,0.00,Rainwise IP-100,2013-04-21 10:15:00,
2013-04-21 06:20:00,34.0,23.0,30.52,NNW,337,2.0,8.0,61,0.00,,,0.00,Rainwise IP-100,2013-04-21 10:20:00,
2013-04-21 06:25:00,34.0,23.0,30.52,NW,315,3.0,7.0,61,0.00,,,0.00,Rainwise IP-100,2013-04-21 10:25:00,
2013-04-21 06:30:00,34.0,23.0,30.52,North,360,2.0,7.0,61,0.00,,,0.00,Rainwise IP-100,2013-04-21 10:30:00,
2013-04-21 06:35:00,34.0,23.0,30.53,NW,315,3.0,6.0,61,0.00,,,0.00,Rainwise IP-100,2013-04-21 10:35:00,
2013-04-21 06:40:00,34.0,23.0,30.53,NW,315,3.0,5.0,61,0.00,,,0.00,Rainwise IP-100,2013-04-21 10:40:00,
2013-04-21 06:45:00,34.0,23.0,30.53,NNW,337,3.0,6.0,60,0.00,,,0.00,Rainwise IP-100,2013-04-21 10:45:00,
2013-04-21 06:50:00,35.0,23.0,30.53,NNW,337,2.0,6.0,59,0.00,,,0.00,Rainwise IP-100,2013-04-21 10:50:00,
2013-04-21 06:55:00,35.0,23.0,30.53,North,360,3.0,5.0,58,0.00,,,0.00,Rainwise IP-100,2013-04-21 10:55:00,
2013-04-21 07:00:00,35.0,23.0,30.53,NNW,337,1.0,7.0,58,0.00,,,0.00,Rainwise IP-100,2013-04-21 11:00:00,
2013-04-21 07:05:00,36.0,24.0,30.53,North,360,0.0,6.0,64,0.00,,,0.00,Rainwise IP-100,2013-04-21 11:05:00,
2013-04-21 07:10:00,37.0,23.0,30.53,NW,315,4.0,6.0,56,0.00,,,0.00,Rainwise IP-100,2013-04-21 11:10:00,
2013-04-21 07:15:00,37.0,23.0,30.54,NW,315,2.0,6.0,54,0.00,,,0.00,Rainwise IP-100,2013-04-21 11:15:00,
2013-04-21 07:20:00,38.0,23.0,30.54,NNW,337,3.0,8.0,52,0.00,,,0.00,Rainwise IP-100,2013-04-21 11:20:00,
2013-04-21 07:25:00,38.0,23.0,30.54,North,360,3.0,10.0,51,0.00,,,0.00,Rainwise IP-100,2013-04-21 11:25:00,
2013-04-21 07:30:00,38.0,23.0,30.54,North,360,6.0,14.0,50,0.00,,,0.00,Rainwise IP-100,2013-04-21 11:30:00,
2013-04-21 07:35:00,38.0,23.0,30.54,NW,315,5.0,12.0,50,0.00,,,0.00,Rainwise IP-100,2013-04-21 11:35:00,
2013-04-21 07:40:00,39.0,23.0,30.54,NNW,337,7.0,12.0,50,0.00,,,0.00,Rainwise IP-100,2013-04-21 11:40:00,
2013-04-21 07:45:00,39.0,23.0,30.55,North,360,8.0,15.0,48,0.00,,,0.00,Rainwise IP-100,2013-04-21 11:45:00,
2013-04-21 07:50:00,39.0,23.0,30.55,North,360,4.0,16.0,49,0.00,,,0.00,Rainwise IP-100,2013-04-21 11:50:00,
2013-04-21 07:55:00,39.0,23.0,30.55,NNW,337,9.0,11.0,49,0.00,,,0.00,Rainwise IP-100,2013-04-21 11:55:00,
2013-04-21 08:00:00,39.0,23.0,30.55,North,360,7.0,14.0,49,0.00,,,0.00,Rainwise IP-100,2013-04-21 12:00:00,
2013-04-21 08:05:00,39.0,23.0,30.55,NNE,22,2.0,17.0,49,0.00,,,0.00,Rainwise IP-100,2013-04-21 12:05:00,
2013-04-21 08:10:00,39.0,23.0,30.55,NNW,337,7.0,17.0,50,0.00,,,0.00,Rainwise IP-100,2013-04-21 12:10:00,
2013-04-21 08:15:00,39.0,23.0,30.56,North,360,5.0,14.0,49,0.00,,,0.00,Rainwise IP-100,2013-04-21 12:15:00,
2013-04-21 08:20:00,39.0,23.0,30.56,NNE,22,10.0,16.0,49,0.00,,,0.00,Rainwise IP-100,2013-04-21 12:20:00,
2013-04-21 08:25:00,39.0,23.0,30.55,North,360,7.0,14.0,48,0.00,,,0.00,Rainwise IP-100,2013-04-21 12:25:00,
2013-04-21 08:30:00,40.0,23.0,30.55,North,360,6.0,18.0,48,0.00,,,0.00,Rainwise IP-100,2013-04-21 12:30:00,
2013-04-21 08:35:00,40.0,23.0,30.55,NNW,337,9.0,16.0,48,0.00,,,0.00,Rainwise IP-100,2013-04-21 12:35:00,
2013-04-21 08:40:00,40.0,23.0,30.55,NW,315,6.0,17.0,47,0.00,,,0.00,Rainwise IP-100,2013-04-21 12:40:00,
2013-04-21 08:45:00,40.0,23.0,30.56,North,360,9.0,17.0,48,0.00,,,0.00,Rainwise IP-100,2013-04-21 12:45:00,
2013-04-21 08:50:00,41.0,23.0,30.56,North,360,9.0,15.0,47,0.00,,,0.00,Rainwise IP-100,2013-04-21 12:50:00,
2013-04-21 08:55:00,41.0,23.0,30.56,North,360,9.0,12.0,47,0.00,,,0.00,Rainwise IP-100,2013-04-21 12:55:00,
2013-04-21 09:00:00,41.0,23.0,30.56,NNW,337,6.0,19.0,47,0.00,,,0.00,Rainwise IP-100,2013-04-21 13:00:00,
2013-04-21 09:05:00,41.0,23.0,30.55,North,360,9.0,17.0,46,0.00,,,0.00,Rainwise IP-100,2013-04-21 13:05:00,
2013-04-21 09:10:00,40.0,23.0,30.55,NW,315,6.0,19.0,46,0.00,,,0.00,Rainwise IP-100,2013-04-21 13:10:00,
2013-04-21 09:15:00,42.0,23.0,30.57,ENE,67,6.0,20.0,46,0.00,,,0.00,Rainwise IP-100,2013-04-21 13:15:00,
2013-04-21 09:20:00,41.0,23.0,30.57,North,360,10.0,17.0,45,0.00,,,0.00,Rainwise IP-100,2013-04-21 13:20:00,
2013-04-21 09:25:00,41.0,23.0,30.57,East,90,7.0,18.0,46,0.00,,,0.00,Rainwise IP-100,2013-04-21 13:25:00,
2013-04-21 09:30:00,42.0,23.0,30.57,North,360,6.0,15.0,46,0.00,,,0.00,Rainwise IP-100,2013-04-21 13:30:00,
2013-04-21 09:35:00,42.0,23.0,30.57,North,360,5.0,16.0,46,0.00,,,0.00,Rainwise IP-100,2013-04-21 13:35:00,
2013-04-21 09:40:00,43.0,23.0,30.57,North,360,12.0,12.0,43,0.00,,,0.00,Rainwise IP-100,2013-04-21 13:40:00,
2013-04-21 09:45:00,43.0,23.0,30.57,NW,315,7.0,14.0,43,0.00,,,0.00,Rainwise IP-100,2013-04-21 13:45:00,
2013-04-21 09:50:00,44.0,24.0,30.57,North,360,2.0,11.0,44,0.00,,,0.00,Rainwise IP-100,2013-04-21 13:50:00,
2013-04-21 09:55:00,44.0,23.0,30.57,NW,315,8.0,13.0,43,0.00,,,0.00,Rainwise IP-100,2013-04-21 13:55:00,
2013-04-21 10:00:00,43.0,23.0,30.57,North,360,13.0,15.0,42,0.00,,,0.00,Rainwise IP-100,2013-04-21 14:00:00,
2013-04-21 10:05:00,44.0,24.0,30.57,North,360,9.0,13.0,44,0.00,,,0.00,Rainwise IP-100,2013-04-21 14:05:00,
2013-04-21 10:10:00,44.0,24.0,30.57,NE,45,7.0,13.0,45,0.00,,,0.00,Rainwise IP-100,2013-04-21 14:10:00,
2013-04-21 10:15:00,44.0,24.0,30.58,NE,45,3.0,9.0,44,0.00,,,0.00,Rainwise IP-100,2013-04-21 14:15:00,
2013-04-21 10:20:00,44.0,24.0,30.58,NE,45,6.0,12.0,44,0.00,,,0.00,Rainwise IP-100,2013-04-21 14:20:00,
2013-04-21 10:25:00,45.0,24.0,30.57,East,90,7.0,10.0,44,0.00,,,0.00,Rainwise IP-100,2013-04-21 14:25:00,
2013-04-21 10:30:00,45.0,24.0,30.57,NNW,337,6.0,10.0,42,0.00,,,0.00,Rainwise IP-100,2013-04-21 14:30:00,
2013-04-21 10:35:00,44.0,23.0,30.57,North,360,1.0,14.0,42,0.00,,,0.00,Rainwise IP-100,2013-04-21 14:35:00,
2013-04-21 10:40:00,45.0,24.0,30.57,North,360,9.0,12.0,42,0.00,,,0.00,Rainwise IP-100,2013-04-21 14:40:00,
2013-04-21 10:45:00,44.0,24.0,30.58,NW,315,6.0,13.0,45,0.00,,,0.00,Rainwise IP-100,2013-04-21 14:45:00,
2013-04-21 10:50:00,45.0,24.0,30.58,North,360,4.0,12.0,44,0.00,,,0.00,Rainwise IP-100,2013-04-21 14:50:00,
2013-04-21 10:55:00,45.0,23.0,30.58,NNW,337,9.0,12.0,41,0.00,,,0.00,Rainwise IP-100,2013-04-21 14:55:00,
2013-04-21 11:00:00,46.0,23.0,30.58,West,270,3.0,9.0,39,0.00,,,0.00,Rainwise IP-100,2013-04-21 15:00:00,
2013-04-21 11:05:00,45.0,23.0,30.57,NNE,22,9.0,14.0,40,0.00,,,0.00,Rainwise IP-100,2013-04-21 15:05:00,
2013-04-21 11:10:00,45.0,23.0,30.57,North,360,9.0,18.0,40,0.00,,,0.00,Rainwise IP-100,2013-04-21 15:10:00,
2013-04-21 11:15:00,46.0,24.0,30.58,North,360,3.0,12.0,41,0.00,,,0.00,Rainwise IP-100,2013-04-21 15:15:00,
2013-04-21 11:20:00,46.0,23.0,30.58,North,360,5.0,11.0,39,0.00,,,0.00,Rainwise IP-100,2013-04-21 15:20:00,
2013-04-21 11:25:00,47.0,23.0,30.57,NNW,337,11.0,11.0,39,0.00,,,0.00,Rainwise IP-100,2013-04-21 15:25:00,
2013-04-21 11:30:00,47.0,24.0,30.57,NNW,337,6.0,16.0,40,0.00,,,0.00,Rainwise IP-100,2013-04-21 15:30:00,
2013-04-21 11:35:00,47.0,23.0,30.57,NW,315,9.0,10.0,37,0.00,,,0.00,Rainwise IP-100,2013-04-21 15:35:00,
2013-04-21 11:40:00,46.0,23.0,30.57,North,360,5.0,16.0,38,0.00,,,0.00,Rainwise IP-100,2013-04-21 15:40:00,
2013-04-21 11:45:00,47.0,23.0,30.57,NW,315,7.0,10.0,38,0.00,,,0.00,Rainwise IP-100,2013-04-21 15:45:00,
2013-04-21 11:50:00,47.0,23.0,30.57,West,270,6.0,9.0,38,0.00,,,0.00,Rainwise IP-100,2013-04-21 15:50:00,
2013-04-21 11:55:00,46.0,23.0,30.57,WNW,292,3.0,15.0,39,0.00,,,0.00,Rainwise IP-100,2013-04-21 15:55:00,
2013-04-21 12:00:00,47.0,23.0,30.57,West,270,5.0,15.0,38,0.00,,,0.00,Rainwise IP-100,2013-04-21 16:00:00,
2013-04-21 12:05:00,49.0,24.0,30.56,West,270,4.0,8.0,38,0.00,,,0.00,Rainwise IP-100,2013-04-21 16:05:00,
2013-04-21 12:10:00,50.0,24.0,30.56,NNE,22,6.0,9.0,35,0.00,,,0.00,Rainwise IP-100,2013-04-21 16:10:00,
2013-04-21 12:15:00,48.0,23.0,30.55,NNE,22,7.0,14.0,35,0.00,,,0.00,Rainwise IP-100,2013-04-21 16:15:00,
2013-04-21 12:20:00,49.0,24.0,30.55,NNW,337,4.0,9.0,36,0.00,,,0.00,Rainwise IP-100,2013-04-21 16:20:00,
2013-04-21 12:25:00,48.0,23.0,30.55,North,360,10.0,14.0,35,0.00,,,0.00,Rainwise IP-100,2013-04-21 16:25:00,
2013-04-21 12:30:00,49.0,23.0,30.55,North,360,10.0,10.0,34,0.00,,,0.00,Rainwise IP-100,2013-04-21 16:30:00,
2013-04-21 12:35:00,50.0,23.0,30.55,NW,315,5.0,14.0,34,0.00,,,0.00,Rainwise IP-100,2013-04-21 16:35:00,
2013-04-21 12:40:00,50.0,23.0,30.55,North,360,2.0,10.0,33,0.00,,,0.00,Rainwise IP-100,2013-04-21 16:40:00,
2013-04-21 12:45:00,51.0,24.0,30.53,South,180,0.0,10.0,33,0.00,,,0.00,Rainwise IP-100,2013-04-21 16:45:00,
2013-04-21 12:50:00,50.0,23.0,30.53,NNW,337,10.0,11.0,33,0.00,,,0.00,Rainwise IP-100,2013-04-21 16:50:00,
2013-04-21 12:55:00,50.0,23.0,30.54,North,360,8.0,15.0,33,0.00,,,0.00,Rainwise IP-100,2013-04-21 16:55:00,
2013-04-21 13:00:00,50.0,23.0,30.54,North,360,1.0,12.0,33,0.00,,,0.00,Rainwise IP-100,2013-04-21 17:00:00,
2013-04-21 13:05:00,51.0,23.0,30.53,NNW,337,7.0,15.0,32,0.00,,,0.00,Rainwise IP-100,2013-04-21 17:05:00,
2013-04-21 13:10:00,51.0,24.0,30.53,NE,45,0.0,9.0,34,0.00,,,0.00,Rainwise IP-100,2013-04-21 17:10:00,
2013-04-21 13:15:00,52.0,23.0,30.52,NW,315,4.0,7.0,32,0.00,,,0.00,Rainwise IP-100,2013-04-21 17:15:00,
2013-04-21 13:20:00,52.0,23.0,30.52,North,360,9.0,9.0,31,0.00,,,0.00,Rainwise IP-100,2013-04-21 17:20:00,
2013-04-21 13:25:00,51.0,24.0,30.52,North,360,6.0,13.0,33,0.00,,,0.00,Rainwise IP-100,2013-04-21 17:25:00,
2013-04-21 13:30:00,50.0,23.0,30.52,South,180,4.0,10.0,33,0.00,,,0.00,Rainwise IP-100,2013-04-21 17:30:00,
2013-04-21 13:35:00,50.0,24.0,30.53,NE,45,0.0,9.0,35,0.00,,,0.00,Rainwise IP-100,2013-04-21 17:35:00,
2013-04-21 13:40:00,51.0,23.0,30.53,NNE,22,5.0,8.0,32,0.00,,,0.00,Rainwise IP-100,2013-04-21 17:40:00,
2013-04-21 13:45:00,52.0,24.0,30.53,West,270,2.0,13.0,34,0.00,,,0.00,Rainwise IP-100,2013-04-21 17:45:00,
2013-04-21 13:50:00,52.0,24.0,30.53,WNW,292,6.0,9.0,34,0.00,,,0.00,Rainwise IP-100,2013-04-21 17:50:00,
2013-04-21 13:55:00,52.0,24.0,30.52,West,270,2.0,9.0,33,0.00,,,0.00,Rainwise IP-100,2013-04-21 17:55:00,
2013-04-21 14:00:00,54.0,24.0,30.52,NE,45,3.0,5.0,31,0.00,,,0.00,Rainwise IP-100,2013-04-21 18:00:00,
2013-04-21 14:05:00,52.0,23.0,30.51,South,180,6.0,9.0,32,0.00,,,0.00,Rainwise IP-100,2013-04-21 18:05:00,
2013-04-21 14:10:00,53.0,26.0,30.51,SSE,157,4.0,10.0,34,0.00,,,0.00,Rainwise IP-100,2013-04-21 18:10:00,
2013-04-21 14:15:00,53.0,24.0,30.51,NE,45,1.0,9.0,33,0.00,,,0.00,Rainwise IP-100,2013-04-21 18:15:00,
2013-04-21 14:20:00,54.0,24.0,30.51,NW,315,2.0,6.0,31,0.00,,,0.00,Rainwise IP-100,2013-04-21 18:20:00,
2013-04-21 14:25:00,53.0,23.0,30.51,North,360,6.0,10.0,31,0.00,,,0.00,Rainwise IP-100,2013-04-21 18:25:00,
2013-04-21 14:30:00,53.0,24.0,30.51,East,90,5.0,12.0,33,0.00,,,0.00,Rainwise IP-100,2013-04-21 18:30:00,
2013-04-21 14:35:00,54.0,24.0,30.51,SE,135,3.0,9.0,31,0.00,,,0.00,Rainwise IP-100,2013-04-21 18:35:00,
2013-04-21 14:40:00,53.0,26.0,30.51,NNE,22,10.0,12.0,34,0.00,,,0.00,Rainwise IP-100,2013-04-21 18:40:00,
2013-04-21 14:45:00,54.0,23.0,30.52,ENE,67,9.0,12.0,29,0.00,,,0.00,Rainwise IP-100,2013-04-21 18:45:00,
2013-04-21 14:50:00,54.0,23.0,30.52,WNW,292,0.0,9.0,29,0.00,,,0.00,Rainwise IP-100,2013-04-21 18:50:00,
2013-04-21 14:55:00,56.0,28.0,30.50,West,270,2.0,8.0,33,0.00,,,0.00,Rainwise IP-100,2013-04-21 18:55:00,
2013-04-21 15:00:00,57.0,26.0,30.50,South,180,2.0,4.0,30,0.00,,,0.00,Rainwise IP-100,2013-04-21 19:00:00,
2013-04-21 15:05:00,58.0,26.0,30.49,South,180,1.0,6.0,28,0.00,,,0.00,Rainwise IP-100,2013-04-21 19:05:00,
2013-04-21 15:10:00,56.0,24.0,30.49,SE,135,3.0,5.0,28,0.00,,,0.00,Rainwise IP-100,2013-04-21 19:10:00,
2013-04-21 15:15:00,57.0,24.0,30.48,SE,135,7.0,9.0,28,0.00,,,0.00,Rainwise IP-100,2013-04-21 19:15:00,
2013-04-21 15:20:00,56.0,26.0,30.48,SSE,157,2.0,8.0,30,0.00,,,0.00,Rainwise IP-100,2013-04-21 19:20:00,
2013-04-21 15:25:00,55.0,26.0,30.50,ENE,67,2.0,10.0,31,0.00,,,0.00,Rainwise IP-100,2013-04-21 19:25:00,
2013-04-21 15:30:00,55.0,26.0,30.50,SE,135,1.0,11.0,31,0.00,,,0.00,Rainwise IP-100,2013-04-21 19:30:00,
2013-04-21 15:35:00,55.0,24.0,30.50,NW,315,7.0,10.0,29,0.00,,,0.00,Rainwise IP-100,2013-04-21 19:35:00,
2013-04-21 15:40:00,56.0,24.0,30.50,NNE,22,5.0,11.0,29,0.00,,,0.00,Rainwise IP-100,2013-04-21 19:40:00,
2013-04-21 15:45:00,56.0,26.0,30.49,North,360,5.0,12.0,32,0.00,,,0.00,Rainwise IP-100,2013-04-21 19:45:00,
2013-04-21 15:50:00,55.0,24.0,30.49,NE,45,0.0,7.0,29,0.00,,,0.00,Rainwise IP-100,2013-04-21 19:50:00,
2013-04-21 15:55:00,57.0,26.0,30.48,NE,45,6.0,6.0,29,0.00,,,0.00,Rainwise IP-100,2013-04-21 19:55:00,
2013-04-21 16:00:00,54.0,23.0,30.48,SE,135,3.0,8.0,29,0.00,,,0.00,Rainwise IP-100,2013-04-21 20:00:00,
2013-04-21 16:05:00,56.0,24.0,30.49,North,360,1.0,6.0,28,0.00,,,0.00,Rainwise IP-100,2013-04-21 20:05:00,
2013-04-21 16:10:00,58.0,26.0,30.49,East,90,4.0,4.0,28,0.00,,,0.00,Rainwise IP-100,2013-04-21 20:10:00,
2013-04-21 16:15:00,57.0,23.0,30.47,East,90,2.0,7.0,26,0.00,,,0.00,Rainwise IP-100,2013-04-21 20:15:00,
2013-04-21 16:20:00,57.0,26.0,30.47,ENE,67,4.0,8.0,30,0.00,,,0.00,Rainwise IP-100,2013-04-21 20:20:00,
2013-04-21 16:25:00,57.0,24.0,30.48,SE,135,3.0,8.0,28,0.00,,,0.00,Rainwise IP-100,2013-04-21 20:25:00,
2013-04-21 16:30:00,56.0,23.0,30.48,ENE,67,3.0,7.0,26,0.00,,,0.00,Rainwise IP-100,2013-04-21 20:30:00,
2013-04-21 16:35:00,56.0,23.0,30.49,South,180,4.0,9.0,26,0.00,,,0.00,Rainwise IP-100,2013-04-21 20:35:00,
2013-04-21 16:40:00,56.0,23.0,30.49,SE,135,6.0,6.0,26,0.00,,,0.00,Rainwise IP-100,2013-04-21 20:40:00,
2013-04-21 16:45:00,56.0,24.0,30.49,East,90,2.0,8.0,28,0.00,,,0.00,Rainwise IP-100,2013-04-21 20:45:00,
2013-04-21 16:50:00,57.0,24.0,30.49,SSE,157,0.0,9.0,27,0.00,,,0.00,Rainwise IP-100,2013-04-21 20:50:00,
2013-04-21 16:55:00,56.0,24.0,30.50,NE,45,3.0,10.0,28,0.00,,,0.00,Rainwise IP-100,2013-04-21 20:55:00,
2013-04-21 17:00:00,57.0,24.0,30.50,NW,315,0.0,7.0,28,0.00,,,0.00,Rainwise IP-100,2013-04-21 21:00:00,
2013-04-21 17:05:00,56.0,23.0,30.48,North,360,6.0,6.0,26,0.00,,,0.00,Rainwise IP-100,2013-04-21 21:05:00,
2013-04-21 17:10:00,57.0,23.0,30.48,North,360,4.0,9.0,26,0.00,,,0.00,Rainwise IP-100,2013-04-21 21:10:00,
2013-04-21 17:15:00,56.0,23.0,30.49,West,270,6.0,8.0,26,0.00,,,0.00,Rainwise IP-100,2013-04-21 21:15:00,
2013-04-21 17:20:00,56.0,21.0,30.49,NE,45,3.0,10.0,25,0.00,,,0.00,Rainwise IP-100,2013-04-21 21:20:00,
2013-04-21 17:25:00,57.0,24.0,30.49,NNW,337,4.0,10.0,28,0.00,,,0.00,Rainwise IP-100,2013-04-21 21:25:00,
2013-04-21 17:30:00,57.0,24.0,30.49,SE,135,3.0,7.0,27,0.00,,,0.00,Rainwise IP-100,2013-04-21 21:30:00,
2013-04-21 17:35:00,58.0,24.0,30.49,SE,135,5.0,6.0,26,0.00,,,0.00,Rainwise IP-100,2013-04-21 21:35:00,
2013-04-21 17:40:00,57.0,24.0,30.49,SSE,157,2.0,7.0,28,0.00,,,0.00,Rainwise IP-100,2013-04-21 21:40:00,
2013-04-21 17:45:00,58.0,23.0,30.48,SE,135,5.0,5.0,25,0.00,,,0.00,Rainwise IP-100,2013-04-21 21:45:00,
2013-04-21 17:50:00,57.0,23.0,30.48,South,180,5.0,9.0,25,0.00,,,0.00,Rainwise IP-100,2013-04-21 21:50:00,
2013-04-21 17:55:00,56.0,21.0,30.49,SSE,157,5.0,6.0,25,0.00,,,0.00,Rainwise IP-100,2013-04-21 21:55:00,
2013-04-21 18:00:00,56.0,23.0,30.49,South,180,4.0,9.0,26,0.00,,,0.00,Rainwise IP-100,2013-04-21 22:00:00,
2013-04-21 18:05:00,55.0,23.0,30.50,SE,135,1.0,7.0,28,0.00,,,0.00,Rainwise IP-100,2013-04-21 22:05:00,
2013-04-21 18:10:00,56.0,24.0,30.50,East,90,4.0,4.0,28,0.00,,,0.00,Rainwise IP-100,2013-04-21 22:10:00,
2013-04-21 18:15:00,56.0,23.0,30.49,NNE,22,4.0,5.0,26,0.00,,,0.00,Rainwise IP-100,2013-04-21 22:15:00,
2013-04-21 18:20:00,55.0,23.0,30.49,NE,45,0.0,6.0,28,0.00,,,0.00,Rainwise IP-100,2013-04-21 22:20:00,
2013-04-21 18:25:00,55.0,23.0,30.50,NW,315,0.0,10.0,28,0.00,,,0.00,Rainwise IP-100,2013-04-21 22:25:00,
2013-04-21 18:30:00,55.0,23.0,30.50,South,180,2.0,4.0,28,0.00,,,0.00,Rainwise IP-100,2013-04-21 22:30:00,
2013-04-21 18:35:00,54.0,23.0,30.50,South,180,3.0,4.0,28,0.00,,,0.00,Rainwise IP-100,2013-04-21 22:35:00,
2013-04-21 18:40:00,53.0,23.0,30.50,NNW,337,0.0,7.0,29,0.00,,,0.00,Rainwise IP-100,2013-04-21 22:40:00,
2013-04-21 18:45:00,53.0,23.0,30.51,NNW,337,0.0,3.0,30,0.00,,,0.00,Rainwise IP-100,2013-04-21 22:45:00,
2013-04-21 18:50:00,53.0,24.0,30.51,SE,135,0.0,5.0,32,0.00,,,0.00,Rainwise IP-100,2013-04-21 22:50:00,
2013-04-21 18:55:00,52.0,23.0,30.51,SE,135,1.0,6.0,31,0.00,,,0.00,Rainwise IP-100,2013-04-21 22:55:00,
2013-04-21 19:00:00,52.0,23.0,30.51,SE,135,1.0,6.0,31,0.00,,,0.00,Rainwise IP-100,2013-04-21 23:00:00,
2013-04-21 19:05:00,52.0,23.0,30.52,ESE,112,0.0,6.0,32,0.00,,,0.00,Rainwise IP-100,2013-04-21 23:05:00,
2013-04-21 19:10:00,51.0,23.0,30.52,ESE,112,1.0,5.0,32,0.00,,,0.00,Rainwise IP-100,2013-04-21 23:10:00,
2013-04-21 19:15:00,51.0,24.0,30.53,NE,45,6.0,6.0,35,0.00,,,0.00,Rainwise IP-100,2013-04-21 23:15:00,
2013-04-21 19:20:00,51.0,24.0,30.53,ESE,112,2.0,8.0,34,0.00,,,0.00,Rainwise IP-100,2013-04-21 23:20:00,
2013-04-21 19:25:00,50.0,24.0,30.53,East,90,2.0,6.0,36,0.00,,,0.00,Rainwise IP-100,2013-04-21 23:25:00,
2013-04-21 19:30:00,50.0,24.0,30.53,East,90,2.0,4.0,36,0.00,,,0.00,Rainwise IP-100,2013-04-21 23:30:00,
2013-04-21 19:35:00,50.0,24.0,30.53,East,90,2.0,5.0,37,0.00,,,0.00,Rainwise IP-100,2013-04-21 23:35:00,
2013-04-21 19:40:00,49.0,24.0,30.53,East,90,1.0,4.0,38,0.00,,,0.00,Rainwise IP-100,2013-04-21 23:40:00,
2013-04-21 19:45:00,49.0,24.0,30.55,East,90,2.0,5.0,38,0.00,,,0.00,Rainwise IP-100,2013-04-21 23:45:00,
2013-04-21 19:50:00,49.0,26.0,30.55,ESE,112,2.0,5.0,40,0.00,,,0.00,Rainwise IP-100,2013-04-21 23:50:00,
2013-04-21 19:55:00,49.0,26.0,30.55,ESE,112,1.0,5.0,39,0.00,,,0.00,Rainwise IP-100,2013-04-21 23:55:00,
2013-04-21 20:00:00,48.0,26.0,30.55,ESE,112,2.0,3.0,41,0.00,,,0.00,Rainwise IP-100,2013-04-22 00:00:00,
2013-04-21 20:05:00,48.0,26.0,30.56,SSE,157,1.0,3.0,41,0.00,,,0.00,Rainwise IP-100,2013-04-22 00:05:00,
2013-04-21 20:10:00,47.0,24.0,30.56,SSW,202,0.0,4.0,41,0.00,,,0.00,Rainwise IP-100,2013-04-22 00:10:00,
2013-04-21 20:15:00,47.0,24.0,30.57,SSE,157,0.0,5.0,42,0.00,,,0.00,Rainwise IP-100,2013-04-22 00:15:00,
2013-04-21 20:20:00,47.0,26.0,30.57,ESE,112,4.0,5.0,43,0.00,,,0.00,Rainwise IP-100,2013-04-22 00:20:00,
2013-04-21 20:25:00,47.0,26.0,30.57,SSE,157,2.0,5.0,44,0.00,,,0.00,Rainwise IP-100,2013-04-22 00:25:00,
2013-04-21 20:30:00,47.0,28.0,30.57,SE,135,1.0,5.0,47,0.00,,,0.00,Rainwise IP-100,2013-04-22 00:30:00,
2013-04-21 20:35:00,47.0,28.0,30.58,SSE,157,0.0,4.0,46,0.00,,,0.00,Rainwise IP-100,2013-04-22 00:35:00,
2013-04-21 20:40:00,46.0,26.0,30.58,SSE,157,1.0,2.0,46,0.00,,,0.00,Rainwise IP-100,2013-04-22 00:40:00,
2013-04-21 20:45:00,46.0,28.0,30.59,SSE,157,3.0,3.0,48,0.00,,,0.00,Rainwise IP-100,2013-04-22 00:45:00,
2013-04-21 20:50:00,46.0,28.0,30.59,ESE,112,4.0,7.0,48,0.00,,,0.00,Rainwise IP-100,2013-04-22 00:50:00,
2013-04-21 20:55:00,46.0,28.0,30.59,South,180,2.0,5.0,48,0.00,,,0.00,Rainwise IP-100,2013-04-22 00:55:00,
2013-04-21 21:00:00,46.0,28.0,30.59,East,90,3.0,7.0,48,0.00,,,0.00,Rainwise IP-100,2013-04-22 01:00:00,
2013-04-21 21:05:00,46.0,28.0,30.59,SE,135,5.0,5.0,48,0.00,,,0.00,Rainwise IP-100,2013-04-22 01:05:00,
2013-04-21 21:10:00,46.0,28.0,30.59,SE,135,0.0,5.0,49,0.00,,,0.00,Rainwise IP-100,2013-04-22 01:10:00,
2013-04-21 21:15:00,45.0,28.0,30.59,ESE,112,1.0,5.0,51,0.00,,,0.00,Rainwise IP-100,2013-04-22 01:15:00,
2013-04-21 21:20:00,45.0,29.0,30.59,SE,135,0.0,4.0,52,0.00,,,0.00,Rainwise IP-100,2013-04-22 01:20:00,
2013-04-21 21:25:00,44.0,28.0,30.59,SE,135,0.0,2.0,50,0.00,,,0.00,Rainwise IP-100,2013-04-22 01:25:00,
2013-04-21 21:30:00,44.0,28.0,30.59,SE,135,0.0,1.0,53,0.00,,,0.00,Rainwise IP-100,2013-04-22 01:30:00,
2013-04-21 21:35:00,44.0,28.0,30.60,SE,135,0.0,1.0,53,0.00,,,0.00,Rainwise IP-100,2013-04-22 01:35:00,
2013-04-21 21:40:00,43.0,28.0,30.60,SE,135,1.0,2.0,53,0.00,,,0.00,Rainwise IP-100,2013-04-22 01:40:00,
2013-04-21 21:45:00,43.0,28.0,30.61,South,180,2.0,3.0,54,0.00,,,0.00,Rainwise IP-100,2013-04-22 01:45:00,
2013-04-21 21:50:00,44.0,29.0,30.61,SE,135,1.0,7.0,55,0.00,,,0.00,Rainwise IP-100,2013-04-22 01:50:00,
2013-04-21 21:55:00,44.0,28.0,30.60,South,180,3.0,6.0,53,0.00,,,0.00,Rainwise IP-100,2013-04-22 01:55:00,
2013-04-21 22:00:00,44.0,28.0,30.60,South,180,0.0,4.0,53,0.00,,,0.00,Rainwise IP-100,2013-04-22 02:00:00,
2013-04-21 22:05:00,44.0,29.0,30.61,South,180,1.0,6.0,56,0.00,,,0.00,Rainwise IP-100,2013-04-22 02:05:00,
2013-04-21 22:10:00,43.0,29.0,30.61,South,180,0.0,3.0,56,0.00,,,0.00,Rainwise IP-100,2013-04-22 02:10:00,
2013-04-21 22:15:00,43.0,31.0,30.61,South,180,0.0,2.0,61,0.00,,,0.00,Rainwise IP-100,2013-04-22 02:15:00,
2013-04-21 22:20:00,42.0,31.0,30.61,South,180,1.0,5.0,63,0.00,,,0.00,Rainwise IP-100,2013-04-22 02:20:00,
2013-04-21 22:25:00,42.0,32.0,30.61,South,180,1.0,3.0,66,0.00,,,0.00,Rainwise IP-100,2013-04-22 02:25:00,
2013-04-21 22:30:00,41.0,32.0,30.61,South,180,1.0,2.0,68,0.00,,,0.00,Rainwise IP-100,2013-04-22 02:30:00,
2013-04-21 22:35:00,41.0,33.0,30.62,South,180,2.0,3.0,73,0.00,,,0.00,Rainwise IP-100,2013-04-22 02:35:00,
2013-04-21 22:40:00,41.0,35.0,30.62,South,180,1.0,3.0,75,0.00,,,0.00,Rainwise IP-100,2013-04-22 02:40:00,
2013-04-21 22:45:00,41.0,33.0,30.62,South,180,2.0,4.0,73,0.00,,,0.00,Rainwise IP-100,2013-04-22 02:45:00,
2013-04-21 22:50:00,41.0,33.0,30.62,South,180,2.0,6.0,72,0.00,,,0.00,Rainwise IP-100,2013-04-22 02:50:00,
2013-04-21 22:55:00,41.0,33.0,30.62,South,180,1.0,3.0,74,0.00,,,0.00,Rainwise IP-100,2013-04-22 02:55:00,
2013-04-21 23:00:00,41.0,33.0,30.62,South,180,0.0,2.0,74,0.00,,,0.00,Rainwise IP-100,2013-04-22 03:00:00,
2013-04-21 23:05:00,40.0,35.0,30.62,South,180,0.0,2.0,78,0.00,,,0.00,Rainwise IP-100,2013-04-22 03:05:00,
2013-04-21 23:10:00,40.0,35.0,30.62,South,180,1.0,3.0,79,0.00,,,0.00,Rainwise IP-100,2013-04-22 03:10:00,
2013-04-21 23:15:00,40.0,35.0,30.63,South,180,0.0,3.0,78,0.00,,,0.00,Rainwise IP-100,2013-04-22 03:15:00,
2013-04-21 23:20:00,40.0,33.0,30.63,South,180,0.0,0.0,76,0.00,,,0.00,Rainwise IP-100,2013-04-22 03:20:00,
2013-04-21 23:25:00,39.0,36.0,30.62,South,180,1.0,2.0,86,0.00,,,0.00,Rainwise IP-100,2013-04-22 03:25:00,
2013-04-21 23:30:00,39.0,35.0,30.62,South,180,0.0,2.0,85,0.00,,,0.00,Rainwise IP-100,2013-04-22 03:30:00,
2013-04-21 23:35:00,38.0,35.0,30.63,South,180,0.0,0.0,88,0.00,,,0.00,Rainwise IP-100,2013-04-22 03:35:00,
2013-04-21 23:40:00,38.0,36.0,30.63,South,180,0.0,1.0,90,0.00,,,0.00,Rainwise IP-100,2013-04-22 03:40:00,
2013-04-21 23:45:00,38.0,35.0,30.63,South,180,0.0,1.0,88,0.00,,,0.00,Rainwise IP-100,2013-04-22 03:45:00,
2013-04-21 23:50:00,38.0,36.0,30.63,South,180,0.0,0.0,91,0.00,,,0.00,Rainwise IP-100,2013-04-22 03:50:00,
2013-04-21 23:55:00,38.0,35.0,30.63,South,180,0.0,0.0,88,0.00,,,0.00,Rainwise IP-100,2013-04-22 03:55:00,